Showing default

QIANFAN-31, 61564

Orbit data source: Space-Track

QIANFAN-31, 61564 is a Chinese payload satellite in LEO that was launched on Tue, 15 Oct 2024 UTC via a CHANG ZHENG 6A launch vehicle from the Taiyaun Space Center, China (TSC). Payload-class satellites include a variety of spacecraft equipped with specific instruments for various scientific and technological missions. These include communications satellites like Starlink; space stations such as the ISS; scientific satellites like the Hubble; Earth observation satellites from companies like Planet Labs, Umbra, and HawkEye 360; GPS; miniature CubeSats for education and research; and military/defense satellites.

Loading next visibility...
Identifier
61564, 2024-185N
Orbit
LEO
Country
Flag of CNCN / PRC
Related business
Manufacturer
GESIH/SECM
Mission
Operational Commercial Communications
Bus & Motor
QIANFAN, Unknown motor
Mass
267 kg wet, ~267 kg dry
Launch date (UTC)
2024-10-15 (2 years ago)
Launch vehicle
CHANG ZHENG 6A
Launch site
Taiyaun Space Center, China (TSC)
Object type
Payload
Rocket body
Debris
Shape & HBR
Box + 1 Pan, 5.0 m
Radar Cross Section
13.200 m², Large (>1 m²)

Expand to show TLE details & history
Last TLE update: 16 hours ago

TLE from 16 hours ago
0 QIANFAN-31
1 61564U 24185N   26206.55726264  .00000153  00000-0  19500-3 0  9992
2 61564  88.9770  57.1305 0009099  91.5524 268.6673 13.58049103 98679
Epoch: 2026-07-25T13:22Z
TLE epoch observation values (Epoch: 2026-07-25T13:22:27.492Z)
Latitude
-0.00005°
Longitude
-86.75189°
Altitude
1,045.917 km
Speed
7.329 km/s
True Right ascension
03h 48m 31s
True Declination
0° 00' 00"
Sunlit
Object was in daylight at epoch
Visualization orbit readout
Latitude
Unknown
Longitude
Unknown
Altitude
Unknown
Speed
Unknown
Apparent Right ascension
Unknown
Apparent Declination
Unknown
Sunlit
N/A
Visualization observer readout
Local Sidereal Time
18:19:31
Azimuth
Unknown
Elevation
Unknown
Doppler factor
Unknown
Orbital elements
Apogee altitude
1,046.581 km
Perigee altitude
1,033.082 km
Semi-major axis
7,417.968 km
Eccentricity
0.00091
Inclination
88.977°
RAAN
57.1305°
Arg. of periapsis
91.5524°
True anomaly
268.56306°
Mean anomaly
268.6673°
Eccentric anomaly
268.61518°
Mean motion
3.39716 °/min
Orbital period
105.97 mins
BSTAR
0.000195
Loading maneuver chart data...
Computing Atmospheric mass density...
Loading historical data...
Loading historical data...
Loading historical data...
Loading historical data...
Loading historical data...
Loading historical data...
Loading historical data...

Documentation

Showing up to 5 results
|